CW7253 Weather Reports


time (UTC)temp
C
wind
direction
speed
KPH
gust
KPH
rain 1hr
cm
rain 24hr
cm
rain mn
cm
humidity
%
barometer
mb
20260510015720 11 121 0.0 0.0 0.00 0.38 0.38 95 1009.5
20260510015215 11 121 0.0 0.0 0.00 0.38 0.38 95 1009.4
20260510014710 12 121 0.0 0.0 0.00 0.38 0.38 96 1009.4
20260510014702 11 121 0.0 0.0 0.00 0.38 0.38 95 1009.4
20260510013657 12 121 0.0 0.0 0.00 0.38 0.38 95 1009.3
20260510013150 12 121 0.0 0.0 0.00 0.38 0.38 95 1009.2
20260510012645 12 121 0.0 0.0 0.00 0.38 0.38 95 1009.2
20260510012132 12 121 0.0 0.0 0.00 0.38 0.38 95 1009.2
20260510011633 12 121 0.0 0.0 0.00 0.38 0.38 94 1009.1
20260510011127 12 121 0.0 0.0 0.00 0.38 0.38 94 1009.1
20260510010621 12 121 0.0 0.0 0.00 0.38 0.38 93 1009.1
20260510010115 12 121 0.0 0.0 0.00 0.38 0.38 92 1009.0
20260510005604 13 121 0.0 0.0 0.00 0.38 0.38 92 1008.9
20260510005103 13 121 0.0 0.0 0.00 0.38 0.38 92 1008.8
20260510004556 13 121 0.0 0.0 0.00 0.38 0.38 91 1008.9
20260510004321 13 121 0.0 0.0 0.00 0.38 0.38 90 1008.9
20260510003545 14 121 0.0 0.0 0.00 0.38 0.38 89 1008.9
20260510003042 14 121 0.0 0.0 0.00 0.38 0.38 88 1008.9
20260510003034 15 121 0.0 0.0 0.00 0.38 0.38 87 1008.8
20260510002023 15 121 0.0 0.0 0.00 0.38 0.38 86 1008.8
20260510001510 15 121 0.0 0.0 0.00 0.38 0.38 85 1008.6
20260510001011 15 121 0.0 0.0 0.00 0.38 0.38 84 1008.4
20260510000506 15 121 0.0 0.0 0.00 0.38 0.38 83 1008.4
20260509235959 16 121 0.0 0.0 0.00 0.38 0.38 82 1008.4
20260509235452 16 121 0.0 0.0 0.00 0.38 0.38 82 1008.5
20260509235441 16 121 0.0 0.0 0.00 0.38 0.38 81 1008.5
20260509234441 16 121 0.0 0.0 0.00 0.38 0.38 81 1008.5
20260509234205 16 121 0.0 0.0 0.00 0.38 0.38 80 1008.4
20260509233429 16 121 0.0 0.0 0.00 0.38 0.38 79 1008.4
20260509232922 16 121 0.0 0.0 0.00 0.38 0.38 79 1008.3
20260509232416 17 121 0.0 0.0 0.00 0.38 0.38 79 1008.3
20260509231910 16 121 0.0 0.0 0.00 0.38 0.38 79 1008.3
20260509231400 17 121 0.0 0.0 0.00 0.38 0.38 79 1008.3
20260509230859 17 121 0.0 0.0 0.00 0.38 0.38 80 1008.2
20260509230353 17 121 0.0 0.0 0.00 0.38 0.38 79 1008.3
20260509225846 17 121 0.0 0.0 0.00 0.38 0.38 78 1008.3
20260509225341 17 121 0.0 0.0 0.00 0.38 0.38 77 1008.4
20260509224827 17 121 0.0 0.0 0.00 0.38 0.38 77 1008.4
20260509224328 17 121 0.0 0.0 0.00 0.38 0.38 78 1008.3
20260509223823 17 121 0.0 0.0 0.00 0.38 0.38 78 1008.3
20260509223317 17 121 0.0 0.0 0.00 0.38 0.38 77 1008.3
20260509222811 17 121 0.0 0.0 0.00 0.38 0.38 77 1008.3
20260509222307 17 121 0.0 0.0 0.00 0.38 0.38 77 1008.3
20260509221759 17 121 0.0 0.0 0.00 0.38 0.38 77 1008.3
20260509221245 17 121 0.0 0.0 0.00 0.38 0.38 77 1008.3
20260509220747 17 121 0.0 0.0 0.00 0.38 0.38 77 1008.3
20260509220241 17 121 0.0 0.0 0.00 0.38 0.38 76 1008.3
20260509215735 17 121 0.0 0.0 0.00 0.38 0.38 77 1008.4
20260509215229 17 121 0.0 0.0 0.00 0.38 0.38 78 1008.5
20260509214948 17 121 0.0 0.0 0.00 0.38 0.38 77 1008.5
20260509214837 17 121 0.0 0.0 0.00 0.38 0.38 79 1008.6
20260509213710 17 121 0.0 0.0 0.00 0.38 0.38 79 1008.7
20260509213205 17 121 0.0 0.0 0.00 0.38 0.38 79 1008.8
20260509212658 16 121 0.0 0.0 0.00 0.38 0.38 80 1008.8
20260509212153 16 121 0.0 0.0 0.00 0.38 0.38 82 1008.9
20260509211647 16 121 0.0 0.0 0.00 0.38 0.38 82 1009.0
20260509211133 16 121 0.0 0.0 0.00 0.38 0.38 84 1009.0
20260509210906 16 121 0.0 0.0 0.00 0.38 0.38 84 1009.1
20260509210128 16 121 0.0 0.0 0.00 0.38 0.38 82 1009.2
20260509205622 16 121 0.0 0.0 0.00 0.38 0.38 82 1009.2
20260509205116 16 121 0.0 0.0 0.00 0.38 0.38 84 1009.2
20260509205108 16 121 0.0 0.0 0.00 0.38 0.38 84 1009.2
20260509204104 16 121 0.0 0.0 0.00 0.38 0.38 83 1009.1
20260509203830 16 121 0.0 0.0 0.00 0.38 0.38 83 1009.0
20260509203053 16 121 0.0 0.0 0.00 0.38 0.38 83 1008.9
20260509202546 16 121 0.0 0.0 0.00 0.38 0.38 84 1008.9
20260509202311 16 121 0.0 0.0 0.00 0.38 0.38 83 1008.7
20260509201535 16 121 0.0 0.0 0.00 0.38 0.38 84 1009.0
20260509201021 16 121 0.0 0.0 0.00 0.38 0.38 83 1009.1
20260509200522 16 121 0.0 0.0 0.00 0.38 0.38 84 1009.2
20260509200016 16 121 0.0 0.0 0.00 0.38 0.38 84 1009.3
20260509195510 16 121 0.0 0.0 0.00 0.38 0.38 82 1009.3
20260509195005 16 121 0.0 0.0 0.00 0.38 0.38 81 1009.4
20260509194454 16 121 0.0 0.0 0.00 0.38 0.38 80 1009.5
20260509193948 16 121 0.0 0.0 0.00 0.38 0.38 81 1009.4
20260509193713 16 121 0.0 0.0 0.00 0.38 0.38 82 1009.5
20260509192937 16 121 0.0 0.0 0.00 0.38 0.38 80 1009.5
20260509192435 16 123 0.0 0.0 0.00 0.38 0.38 83 1009.5
20260509191925 16 123 0.0 0.0 0.00 0.38 0.38 86 1009.6
20260509191411 15 123 0.0 0.0 0.00 0.38 0.38 90 1009.7
20260509190912 15 123 0.0 0.0 0.00 0.38 0.38 87 1010.0
20260509190407 15 123 0.0 0.0 0.00 0.38 0.38 88 1010.0
20260509185900 15 122 0.0 0.0 0.00 0.38 0.38 90 1010.0
20260509185355 15 122 0.0 0.0 0.00 0.38 0.38 91 1010.1
20260509184842 15 122 0.0 0.0 0.00 0.38 0.38 93 1010.1
20260509184342 15 122 0.0 11.3 0.00 0.38 0.38 93 1010.1
20260509183832 14 122 0.0 11.3 0.00 0.38 0.38 94 1010.0
20260509183330 14 122 0.0 1.6 0.00 0.38 0.38 94 1010.0
20260509182825 13 123 0.0 6.4 0.00 0.38 0.38 95 1010.1
20260509182318 13 123 0.0 6.4 0.00 0.38 0.38 96 1010.2
20260509181813 13 252 0.0 1.6 0.00 0.38 0.38 97 1010.1
20260509181530 13 261 0.0 1.6 0.00 0.38 0.38 98 1010.2
20260509180800 13 261 0.0 0.0 0.00 0.38 0.38 97 1010.2
20260509180300 12 261 0.0 0.0 0.00 0.38 0.38 97 1010.4
20260509180255 13 261 0.0 0.0 0.00 0.38 0.38 97 1010.4
20260509175242 12 261 0.0 0.0 0.03 0.38 0.38 97 1010.5
20260509175002 12 261 0.0 0.0 0.03 0.38 0.38 96 1010.5
20260509174231 12 261 0.0 0.0 0.03 0.38 0.38 96 1010.6
20260509173718 12 261 0.0 0.0 0.03 0.38 0.38 97 1010.5
20260509173219 12 261 0.0 0.0 0.03 0.38 0.38 96 1010.5
20260509172712 12 261 0.0 0.0 0.03 0.38 0.38 97 1010.5
20260509172206 12 261 0.0 0.0 0.03 0.38 0.38 96 1010.5
20260509171701 12 261 0.0 0.0 0.03 0.38 0.38 96 1010.6
20260509171149 12 250 0.0 0.0 0.03 0.38 0.38 96 1010.6
20260509170649 12 250 0.0 0.0 0.05 0.38 0.38 96 1010.7
20260509170143 12 250 0.0 0.0 0.05 0.38 0.38 96 1010.7
20260509165636 12 250 0.0 0.0 0.05 0.36 0.38 96 1010.6
20260509165130 12 250 0.0 0.0 0.08 0.36 0.36 96 1010.5
20260509164848 12 250 0.0 0.0 0.10 0.36 0.36 96 1010.6
20260509164118 12 250 0.0 0.0 0.15 0.36 0.36 96 1010.6
20260509163605 12 250 0.0 0.0 0.18 0.36 0.36 96 1010.6
20260509163106 12 250 0.0 0.0 0.23 0.36 0.36 96 1010.6
20260509162600 12 250 0.0 0.0 0.25 0.36 0.36 96 1010.5
20260509162322 12 250 0.0 0.0 0.28 0.36 0.36 95 1010.4
20260509161545 12 250 0.0 0.0 0.28 0.36 0.36 96 1010.4
20260509161038 12 250 0.0 0.0 0.28 0.36 0.36 96 1010.4
20260509160526 12 250 0.0 0.0 0.25 0.33 0.33 96 1010.4
20260509160027 12 250 0.0 0.0 0.25 0.30 0.33 95 1010.5
20260509155521 12 250 0.0 0.0 0.23 0.28 0.28 95 1010.7
20260509155014 12 250 0.0 0.0 0.23 0.25 0.25 95 1011.1
20260509154504 12 250 0.0 0.0 0.20 0.23 0.23 94 1011.3
20260509153958 12 250 0.0 0.0 0.20 0.20 0.20 93 1011.5
20260509153456 12 250 0.0 0.0 0.15 0.15 0.18 93 1011.6
20260509152954 12 250 0.0 0.0 0.13 0.13 0.13 93 1011.6
20260509152946 12 250 0.0 0.0 0.10 0.10 0.10 92 1011.5
20260509151939 12 250 0.0 0.0 0.08 0.08 0.08 92 1011.4
20260509151432 12 250 0.0 0.0 0.08 0.08 0.08 91 1011.4
20260509150926 12 250 0.0 0.0 0.08 0.08 0.08 91 1011.4
20260509150413 12 250 0.0 0.0 0.08 0.08 0.08 90 1011.4
20260509145915 12 250 0.0 0.0 0.05 0.05 0.05 89 1011.5
20260509145405 13 251 0.0 0.0 0.05 0.05 0.05 88 1011.5
20260509144903 13 251 0.0 0.0 0.03 0.03 0.03 87 1011.4
20260509144356 13 250 0.0 0.0 0.03 0.03 0.03 85 1011.4
20260509143843 13 251 0.0 0.0 0.00 0.00 0.00 84 1011.3
20260509143344 13 251 0.0 0.0 0.00 0.00 0.00 83 1011.3
20260509143110 13 251 0.0 0.0 0.00 0.00 0.00 83 1011.1
20260509142332 13 251 0.0 0.0 0.00 0.00 0.00 81 1011.0
20260509142057 13 251 0.0 0.0 0.00 0.00 0.00 81 1010.9
20260509141320 13 251 0.0 0.0 0.00 0.00 0.00 81 1010.9
20260509140815 13 251 0.0 0.0 0.00 0.00 0.00 81 1010.9
20260509140304 13 251 0.0 0.0 0.00 0.00 0.00 81 1010.8
20260509135802 13 251 0.0 0.0 0.00 0.00 0.00 83 1010.8
20260509135256 13 251 0.0 0.0 0.00 0.00 0.00 83 1010.8
20260509134750 13 251 0.0 0.0 0.00 0.00 0.00 83 1010.8
20260509134244 13 251 0.0 0.0 0.00 0.00 0.00 83 1010.6
20260509133736 13 251 0.0 0.0 0.00 0.00 0.00 83 1010.6
20260509133228 13 251 0.0 0.0 0.00 0.00 0.00 84 1010.7
20260509132719 13 251 0.0 0.0 0.00 0.00 0.00 83 1010.5
20260509132206 13 251 0.0 0.0 0.00 0.00 0.00 84 1010.5
20260509131657 13 251 0.0 0.0 0.00 0.00 0.00 85 1010.5
20260509131145 13 251 0.0 0.0 0.00 0.00 0.00 86 1010.6
20260509130640 12 251 0.0 0.0 0.00 0.00 0.00 86 1010.4
20260509130138 12 251 0.0 0.0 0.00 0.00 0.00 87 1010.4
20260509125636 12 251 0.0 0.0 0.00 0.00 0.00 89 1010.5
20260509125137 12 251 0.0 0.0 0.00 0.00 0.00 89 1010.6
20260509124638 12 251 0.0 0.0 0.00 0.00 0.00 90 1010.6
20260509124136 12 251 0.0 0.0 0.00 0.00 0.00 89 1010.4
20260509123636 12 251 0.0 0.0 0.00 0.00 0.00 89 1010.5
20260509123139 12 251 0.0 0.0 0.00 0.00 0.00 89 1010.5
20260509122640 12 251 0.0 0.0 0.00 0.00 0.00 89 1010.5
20260509122134 12 251 0.0 0.0 0.00 0.00 0.00 90 1010.5
20260509121622 12 251 0.0 0.0 0.00 0.00 0.00 90 1010.6
20260509121352 11 251 0.0 0.0 0.00 0.00 0.00 90 1010.3
20260509120620 11 251 0.0 0.0 0.00 0.00 0.00 90 1010.2
20260509120351 11 251 0.0 0.0 0.00 0.00 0.00 90 1010.4
20260509115854 11 251 0.0 0.0 0.00 0.00 0.00 90 1010.2
20260509115120 11 251 0.0 0.0 0.00 0.00 0.00 90 1010.3
20260509114621 11 251 0.0 0.0 0.00 0.00 0.00 90 1010.2
20260509114120 11 251 0.0 0.0 0.00 0.00 0.00 90 1010.1
20260509113622 11 251 0.0 0.0 0.00 0.00 0.00 90 1010.3
20260509113347 11 251 0.0 0.0 0.00 0.00 0.00 90 1010.1
20260509112605 11 251 0.0 0.0 0.00 0.00 0.00 90 1010.2
20260509112105 11 251 0.0 0.0 0.00 0.00 0.00 90 1010.1
20260509111604 11 251 0.0 0.0 0.00 0.00 0.00 90 1010.1
20260509111104 11 251 0.0 0.0 0.00 0.00 0.00 90 1010.2
20260509110604 11 251 0.0 0.0 0.00 0.00 0.00 90 1010.2
20260509110108 11 251 0.0 0.0 0.00 0.00 0.00 89 1010.1
20260509105606 11 251 0.0 0.0 0.00 0.00 0.00 89 1010.2
20260509105104 11 251 0.0 0.0 0.00 0.00 0.00 89 1010.1
20260509104606 10 251 0.0 0.0 0.00 0.00 0.00 89 1009.9
20260509104100 10 251 0.0 0.0 0.00 0.00 0.00 89 1010.1
20260509103549 10 251 0.0 0.0 0.00 0.00 0.00 89 1010.1
20260509103324 10 251 0.0 0.0 0.00 0.00 0.00 88 1009.9
20260509102549 10 251 0.0 0.0 0.00 0.00 0.00 88 1009.9
20260509102320 10 251 0.0 0.0 0.00 0.00 0.00 88 1009.8
20260509101550 10 251 0.0 0.0 0.00 0.00 0.00 87 1009.9
20260509101319 11 251 0.0 0.0 0.00 0.00 0.00 87 1009.9
20260509100550 10 251 0.0 0.0 0.00 0.00 0.00 87 1009.8
20260509100051 10 251 0.0 0.0 0.00 0.00 0.00 87 1009.5
20260509095552 10 251 0.0 0.0 0.00 0.00 0.00 86 1009.7
20260509095318 11 251 0.0 0.0 0.00 0.00 0.00 86 1009.5
20260509094534 11 251 0.0 0.0 0.00 0.00 0.00 86 1009.7
20260509094033 11 251 0.0 0.0 0.00 0.00 0.00 86 1009.9
20260509093533 11 251 0.0 0.0 0.00 0.00 0.00 86 1010.0
20260509093032 11 251 0.0 0.0 0.00 0.00 0.00 85 1010.0
20260509092534 11 251 0.0 0.0 0.00 0.00 0.00 85 1009.8
20260509092033 11 251 0.0 0.0 0.00 0.00 0.00 85 1009.9
20260509091533 11 251 0.0 0.0 0.00 0.00 0.00 84 1009.9
20260509091033 11 251 0.0 0.0 0.00 0.00 0.00 84 1009.9
20260509090534 11 251 0.0 0.0 0.00 0.00 0.00 84 1009.9
20260509090027 11 251 0.0 0.0 0.00 0.00 0.00 84 1010.0
20260509085515 11 251 0.0 0.0 0.00 0.00 0.00 84 1010.0
20260509085008 11 251 0.0 0.0 0.00 0.00 0.00 84 1010.1
20260509085003 11 251 0.0 0.0 0.00 0.00 0.00 84 1010.1
20260509084001 11 251 0.0 0.0 0.00 0.00 0.00 84 1010.1
20260509083732 11 251 0.0 0.0 0.00 0.00 0.00 85 1010.1
20260509083000 11 251 0.0 0.0 0.00 0.00 0.00 85 1010.2
20260509082737 11 251 0.0 0.0 0.00 0.00 0.00 85 1010.2
20260509082501 11 251 0.0 0.0 0.00 0.00 0.00 85 1010.2
20260509081459 10 251 0.0 0.0 0.00 0.00 0.00 85 1010.4
20260509081229 10 251 0.0 0.0 0.00 0.00 0.00 85 1010.4
20260509080501 10 251 0.0 0.0 0.00 0.00 0.00 85 1010.4
20260509075954 10 251 0.0 0.0 0.00 0.00 0.00 85 1010.4
20260509075713 10 251 0.0 0.0 0.00 0.00 0.00 85 1010.3
20260509074936 10 251 0.0 0.0 0.00 0.00 0.00 86 1010.3
20260509074702 10 251 0.0 0.0 0.00 0.00 0.00 86 1010.3
20260509073922 10 251 0.0 0.0 0.00 0.00 0.00 87 1010.4
20260509073414 10 251 0.0 0.0 0.00 0.00 0.00 89 1010.5
20260509073137 10 251 0.0 0.0 0.00 0.00 0.00 88 1010.5
20260509072400 10 251 0.0 0.0 0.00 0.00 0.00 88 1010.5
20260509072123 10 251 0.0 0.0 0.00 0.00 0.00 88 1010.5
20260509071615 10 251 0.0 0.0 0.00 0.00 0.00 87 1010.6
20260509070839 10 251 0.0 0.0 0.00 0.00 0.00 86 1010.6
20260509070326 10 251 0.0 0.0 0.00 0.00 0.00 86 1010.6
20260509070058 10 251 0.0 0.0 0.00 0.00 0.00 85 1010.7
20260509065320 10 251 0.0 0.0 0.00 0.00 0.00 85 1010.6
20260509065045 10 251 0.0 0.0 0.00 0.00 0.00 85 1010.6
20260509064308 11 251 0.0 0.0 0.00 0.00 0.00 84 1010.6
20260509064302 11 251 0.0 0.0 0.00 0.00 0.00 84 1010.6
20260509063528 11 251 0.0 0.0 0.00 0.00 0.00 84 1010.6
20260509062743 11 251 0.0 0.0 0.00 0.00 0.00 83 1010.7
20260509062249 11 251 0.0 0.0 0.00 0.00 0.00 83 1010.8
20260509062244 11 251 0.0 0.0 0.00 0.00 0.00 83 1010.6
20260509061231 11 251 0.0 0.0 0.00 0.00 0.00 82 1010.7
20260509060724 11 251 0.0 0.0 0.00 0.00 0.00 82 1010.7
20260509060218 11 251 0.0 0.0 0.00 0.00 0.00 82 1010.7
20260509055705 11 251 0.0 0.0 0.00 0.00 0.00 82 1010.6
20260509055202 11 250 0.0 0.0 0.00 0.00 0.00 82 1010.6
20260509054927 11 250 0.0 0.0 0.00 0.00 0.00 83 1010.8
20260509054147 11 250 0.0 0.0 0.00 0.00 0.00 82 1010.9
20260509054143 11 250 0.0 0.0 0.00 0.00 0.00 83 1010.9
20260509053138 11 250 0.0 0.0 0.00 0.00 0.00 82 1011.0
20260509052632 11 250 0.0 0.0 0.00 0.00 0.00 83 1011.0
20260509052126 11 250 0.0 0.0 0.00 0.00 0.00 83 1011.1
20260509051620 11 250 0.0 0.0 0.00 0.00 0.00 83 1011.3
20260509051114 11 250 0.0 0.0 0.00 0.00 0.00 82 1011.4
20260509050601 11 250 0.0 0.0 0.00 0.00 0.00 83 1011.4
20260509050332 11 250 0.0 0.0 0.00 0.00 0.00 82 1011.4
20260509045556 11 250 0.0 0.0 0.00 0.00 0.00 82 1011.1
20260509045050 11 250 0.0 0.0 0.00 0.00 0.00 82 1011.1
20260509044814 11 250 0.0 0.0 0.00 0.00 0.00 81 1011.1
20260509044035 11 250 0.0 0.0 0.00 0.00 0.00 80 1011.4
20260509043521 11 250 0.0 0.0 0.00 0.00 0.00 80 1011.4
20260509043022 12 250 0.0 0.0 0.00 0.00 0.00 80 1011.5
20260509042516 12 250 0.0 0.0 0.00 0.00 0.00 79 1011.4
20260509042009 12 250 0.0 0.0 0.00 0.00 0.00 78 1011.4
20260509041504 12 250 0.0 0.0 0.00 0.00 0.00 77 1011.5
20260509040958 12 250 0.0 0.0 0.00 0.00 0.00 77 1011.5
20260509040451 12 250 0.0 0.0 0.00 0.00 0.00 77 1011.6
20260509035945 13 250 0.0 0.0 0.00 0.00 0.00 76 1011.5
20260509035710 13 250 0.0 0.0 0.00 0.00 0.00 75 1011.6
20260509034932 13 250 0.0 0.0 0.00 0.00 0.00 74 1011.6
20260509034427 13 250 0.0 0.0 0.00 0.00 0.00 73 1011.6
20260509034417 13 250 0.0 0.0 0.00 0.00 0.00 72 1011.9
20260509033415 13 250 0.0 0.0 0.00 0.00 0.00 73 1011.9
20260509033140 13 250 0.0 0.0 0.00 0.00 0.00 72 1011.8
20260509032353 13 250 0.0 0.0 0.00 0.00 0.00 70 1011.7
20260509031855 13 250 0.0 0.0 0.00 0.00 0.00 70 1011.8
20260509031349 13 250 0.0 0.0 0.00 0.00 0.00 70 1011.8
20260509030840 13 250 0.0 0.0 0.00 0.00 0.00 72 1011.8
20260509030607 13 250 0.0 0.0 0.00 0.00 0.00 72 1011.9
20260509025830 13 250 0.0 0.0 0.00 0.00 0.00 73 1011.8
20260509025325 13 250 0.0 0.0 0.00 0.00 0.00 74 1011.9
20260509024812 12 250 0.0 0.0 0.00 0.00 0.00 75 1011.8
20260509024545 12 250 0.0 0.0 0.00 0.00 0.00 79 1011.9
20260509023807 12 254 0.0 0.0 0.00 0.00 0.00 78 1011.6
20260509023301 12 254 0.0 0.0 0.00 0.00 0.00 77 1011.4
20260509023025 12 254 0.0 0.0 0.00 0.00 0.00 78 1011.1
20260509022512 12 254 0.0 0.0 0.00 0.00 0.00 78 1011.1
20260509021742 12 254 0.0 0.0 0.00 0.00 0.00 78 1011.4
20260509021237 12 254 0.0 0.0 0.00 0.00 0.00 76 1011.5
20260509021002 12 254 0.0 0.0 0.00 0.00 0.00 76 1011.5
20260509020225 12 254 0.0 0.0 0.00 0.00 0.00 77 1011.6